Время (UTC), дата Ветер
(°,м/с) 
Видим.   Явления Облачность Т
(°С)
Тd
(°С)
f(%) Тe
(°С)
Pmin
(гПа)
dP
(гПа)
Po
(мм)
O2
(г/м3)
Тmin Tmax R s Состояние
почвы
00 01.04.10 тихо ()   10 км    8/0 средняя 
[Ac cast]
+2.6 -2 72 +3  1027.5  0.3  759  303           
03 01.04.10 060 (СВ) >10 км    8/0 средняя 
[Ac cast]
+2.2 -2.4 72 +3  1028.7  1.1  760  304           
06 01.04.10 100 (В) >10 км    ясно 
+6.7 -2.7 51 +7  1028.8  0.3  761  299  +1         
09 01.04.10 060 (СВ) >10 км    ясно 
+9.3 -2.5 43 +9  1029.3  0.6  761  297           
12 01.04.10 060 (СВ) >10 км    ясно 
+10.1 -0.5 48 +10  1029.2  761  296           
15 01.04.10 тихо ()   >10 км    ясно 
+9.2 -0.5 51 +9  1029.5  0.2  761  297           
18 01.04.10 090 (В) 10 км    ясно 
+6.3 -1.2 59 +7  1030  0.4  761  300    +10.1       
21 01.04.10 100 (В) 10 км    ясно 
+3.6 -2.4 65 +4  1030.8  0.7  762  303           
00 02.04.10 110 (В) 10 км    ясно 
+2.1 -2.9 69 +3  1031.3  0.4  762  305           
03 02.04.10 100 (В) >10 км    ясно 
+2.5 -2.4 70 +3  1031.8  0.5  763  305           
06 02.04.10 100 (В) >10 км    ясно 
+6.7 -1.6 55 +7  1031.7  0.1  763  300  +1.4         
09 02.04.10 090 (В) >10 км    1/0 средняя 
[As trans]
+8.5 -1.7 49 +9  1031.6  763  298           
12 02.04.10 160 (Ю) >10 км    4/0 средняя, верхняя 
[As trans|Ci fib]
+8 -1.4 51 +8  1030.9  -0.7  762  299           
15 02.04.10 180 (Ю) >10 км    10/0 средняя, верхняя 
[As trans|Ci fib]
+6.8 -1.8 54 +7  1030.5  -0.5  762  300           
18 02.04.10 тихо ()   10 км    ясно 
+3.6 -2.7 63 +4  1030.6  762  303    +8.6       
21 02.04.10 тихо ()   10 км    ясно 
+1.3 -3.2 72 +1  1030.9  762  306           
00 03.04.10 тихо ()   10 км    ясно 
+0.3 -3 79 1030.6  -0.3  762  307           
03 03.04.10 тихо ()   >10 км    ясно 
-1.9 -3.2 91 -2  1031  0.3  762  309           
06 03.04.10 тихо ()   4000 м  дымка  ясно 
+7.5 -0.9 55 +8  1030.6  0.2  762  299  -2         
09 03.04.10 тихо ()   10 км    8/0 верхняя 
[Ci fib]
+9.7 -2.5 42 +10  1030.7  0.2  762  297           
12 03.04.10 160 (Ю) >10 км    8/0 верхняя 
[Ci fib]
+9.4 -4.1 38 +10  1029.7  -1.1  761  297           
15 03.04.10 тихо ()   >10 км    ясно 
+8.4 -3.8 42 +8  1029.3  -0.4  761  298           
18 03.04.10 тихо ()   10 км    ясно 
+4.9 -3.1 56 +5  1029.2  -0.3  761  301    +10.2       
21 03.04.10 тихо ()   10 км    ясно 
+3.1 -3.7 61 +3  1029.1  -0.2  761  303           
00 04.04.10 тихо ()   10 км    ясно 
+1.6 -3.9 67 +2  1029.1  761  305           
03 04.04.10 тихо ()   >10 км    ясно 
+0.4 -2.6 80 1029.5  0.2  761  306           
06 04.04.10 тихо ()   >10 км    ясно 
+5.5 -2.6 56 +6  1029  -0.1  761  301  +0.4         
09 04.04.10 090 (В) >10 км    ясно 
+9.5 -2.7 42 +10  1028.8  761  297           
12 04.04.10 040 (СВ) >10 км    1/0 верхняя 
[Cc]
+10.5 -3 39 +11  1028.5  -0.3  760  295           
15 04.04.10 тихо ()   >10 км    ясно 
+10.5 -3.6 37 +11  1027.9  -0.6  760  295           
18 04.04.10 тихо ()   10 км    ясно 
+6.5 -4.5 45 +7  1027.8  -0.3  760  300    +10.7       
21 04.04.10 тихо ()   10 км    ясно 
+4.2 -3.7 56 +4  1027.9  760  302           
00 05.04.10 тихо ()   10 км    ясно 
+1.7 -3 71 +2  1027.7  -0.3  760  305           
03 05.04.10 тихо ()   >10 км    ясно 
+1.9 -3.1 69 +2  1028.1  0.4  760  304           
06 05.04.10 тихо ()   >10 км    ясно 
+6.1 -3.6 50 +6  1028.1  0.2  760  300  +1.2         
09 05.04.10 360 (С) >10 км    ясно 
+10.5 -3.6 37 +11  1027.3  -0.6  760  295           
12 05.04.10 350 (С) >10 км    ясно 
+13 -2.5 34 +13  1026.8  -0.3  759  292           
15 05.04.10 360 (С) >10 км    ясно 
+11.9 -2.2 37 +13  1026.1  -0.7  759  293           
18 05.04.10 010 (С) >10 км    ясно 
+8.9 -1.9 47 +10  1026.6  0.3  759  296    +13.1       
21 05.04.10 010 (С) 10 км    ясно 
+6.6 -3.2 50 +8  1026.3  -0.5  759  299           
00 06.04.10 тихо ()   10 км    ясно 
+4.7 -2.6 59 +5  1026.3  -0.1  759  301           
03 06.04.10 010 (С) >10 км    ясно 
+3.2 -2.9 64 +4  1026.8  0.4  759  303           
06 06.04.10 тихо ()   >10 км    ясно 
+9.2 -0.5 51 +9  1026.3  -0.1  759  296  +2.8         
09 06.04.10 360 (С) >10 км    ясно 
+13.3 -0.2 39 +15  1026.1  759  292           
12 06.04.10 090 (В) >10 км    4/0 средняя 
[Ac lent]
+14 -0.7 36 +15  1026.4  0.4  759  291           
15 06.04.10 100 (В) >10 км    ясно 
+12.4 -0.9 40 +14  1027.1  0.5  759  293           
18 06.04.10 090 (В) 10 км    ясно 
+9.5 -0.7 49 +11  1027.9  0.7  760  296    +14.5       
21 06.04.10 120 (ЮВ) 10 км    ясно 
+7.3 -1.4 54 +8  1028.8  0.7  761  299           
00 07.04.10 100 (В) 10 км    ясно 
+4.9 -1.4 64 +6  1029.4  0.5  761  301           
03 07.04.10 100 (В) >10 км    ясно 
+3.2 -1.6 71 +4  1030.1  0.6  761  303           
06 07.04.10 060 (СВ) >10 км    ясно 
+5.6 -0.2 66 +6  1030.9  762  301  +3.1         
09 07.04.10 080 (В) >10 км    ясно 
+6.6 -2.8 51 +6  1031.2  0.3  762  300           
12 07.04.10 100 (В) >10 км    4/0 верхняя 
[Ci fib]
+8 -3.6 44 +9  1031.1  762  299           
15 07.04.10 100 (В) >10 км    10/0 верхняя 
[Ci fib]
+6.5 -3.3 50 +6  1030.8  -0.4  762  300           
18 07.04.10 тихо ()   10 км    ясно 
+2.4 -3.9 63 +2  1031.5  0.5  762  305    +8       
21 07.04.10 140 (ЮВ) 10 км    4/0 верхняя 
[Ci fib]
+1.3 -5 63 +2  1031.6  0.1  762  306           
00 08.04.10 130 (ЮВ) 10 км    4/0 верхняя 
[Ci fib]
-0.3 -4.4 74 1032.2  0.4  763  308           
03 08.04.10 тихо ()   >10 км    8/0 средняя, верхняя 
[Ac lent|Ci fib]
-1.3 -4.2 81 -1  1032.5  0.2  763  309           
06 08.04.10 140 (ЮВ) >10 км    ясно 
+3.1 -3.4 62 +4  1033.8  1.5  764  305  -1.3         
09 08.04.10 100 (В) >10 км    ясно 
+5.5 -7 40 +6  1034  0.3  764  303           
12 08.04.10 130 (ЮВ) >10 км    ясно 
+6.3 -7 38 +7  1033.5  -0.4  764  302           
15 08.04.10 120 (ЮВ) >10 км    ясно 
+5.4 -8.6 36 +6  1032.8  -0.8  763  302           
18 08.04.10 тихо ()   10 км    ясно 
+2.7 -7.5 47 +3  1033.4  0.5  764  306    +6.9       
21 08.04.10 100 (В) 10 км    ясно 
+0.6 -8.1 52 +1  1033.1  -0.4  763  308           
00 09.04.10 100 (В) 10 км    ясно 
-1 -8.4 57 1033.2  763  310           
03 09.04.10 тихо ()   >10 км    ясно 
-2 -8.2 63 -2  1033.9  0.7  764  311           
06 09.04.10 100 (В) >10 км    ясно 
+2.8 -5.7 54 +4  1033.7  764  305  -2.2         
09 09.04.10 090 (В) >10 км    ясно 
+5.1 -7.7 39 +5  1033.4  -0.2  764  303           
12 09.04.10 060 (СВ) >10 км    ясно 
+6.3 -7 38 +6  1032.5  -0.8  763  301           
15 09.04.10 100 (В) >10 км    ясно 
+6.3 -7.4 37 +6  1031.4  -1  762  301           
18 09.04.10 080 (В) 10 км    ясно 
+3.8 -6.7 46 +5  1030.8  -0.7  762  304    +6.3       
21 09.04.10 080 (В) 10 км    ясно 
+2.5 -6.1 53 +3  1030.2  -0.7  761  305           
00 10.04.10 010 (С) 10 км    ясно 
+0.5 -6.1 61 +1  1029.8  -0.6  761  307           
03 10.04.10 020 (С) >10 км    ясно 
-1 -6.8 65 1029.5  -0.4  761  308           
06 10.04.10 050 (СВ) >10 км    ясно 
+5.7 -5.3 45 +5  1028.7  -0.3  760  301  -1         
09 10.04.10 050 (СВ) >10 км    10/0 верхняя 
[Ci fib]
+8.2 -3.8 42 +8  1028  -0.6  760  298           
12 10.04.10 090 (В) >10 км    8/0 верхняя 
[Ci fib]
+8.7 -5.7 36 +8  1027.6  -0.4  760  297           
15 10.04.10 060 (СВ) >10 км    4/0 верхняя 
[Ci fib]
+8.2 -4.1 42 +8  1026.3  -1.2  759  297           
18 10.04.10 090 (В) 10 км    ясно 
+6.2 -5.8 42 +6  1026.8  0.3  759  300    +8.9       
21 10.04.10 100 (В) 10 км    ясно 
+4.6 -6.3 45 +5  1026.9  759  301           
00 11.04.10 тихо ()   10 км    ясно 
+0.8 -5.7 62 +1  1027  -0.1  759  306           
03 11.04.10 тихо ()   >10 км    3/0 верхняя 
[Ci fib]
-1 -5.3 73 -1  1026.8  -0.3  759  307           
06 11.04.10 030 (СВ) >10 км    10/0 верхняя 
[Ci fib]
+6.7 -2 54 +8  1026.2  -0.2  759  299  -1.1         
09 11.04.10 040 (СВ) >10 км    3/0 верхняя 
[Ci fib]
+10.3 -3.8 37 +10  1025.1  -0.8  758  295           
12 11.04.10 040 (СВ) >10 км    9/0 средняя 
[Ac trans]
+10.5 -3.8 36 +10  1024.3  -0.8  757  294           
15 11.04.10 040 (СВ) >10 км    8/0 средняя 
[Ac trans]
+9.5 -6 33 +11  1023.6  -0.8  757  295           
18 11.04.10 030 (СВ) 10 км    8/0 средняя 
[Ac trans]
+7.1 -7.4 35 +8  1023.7  -0.1  757  298    +10.7       
21 11.04.10 080 (В) 10 км    9/0 средняя 
[Ac trans]
+6.5 -1.2 58 +6  1023.1  -0.6  756  298           
00 12.04.10 040 (СВ) 10 км    3/0 средняя 
[Ac trans]
+3.5 -0.9 73 +3  1023  -0.2  756  301           
03 12.04.10 050 (СВ) >10 км    9/9 600 м 
[Sc]
+2.7 -1.8 72 +2  1023.1  756  302           
06 12.04.10 030 (СВ) >10 км    3/0 верхняя 
[Ci fib]
+3.8 -2.1 65 +3  1023.7  0.7  757  301  +2.5         
09 12.04.10 040 (СВ) >10 км    8/0 верхняя 
[Ci fib]
+5.7 -2.7 55 +5  1023.8  0.2  757  299           
12 12.04.10 060 (СВ) >10 км    8/0 верхняя 
[Ci fib]
+5.9 -3.1 52 +5  1023.6  -0.2  757  299           
15 12.04.10 060 (СВ) >10 км    ясно 
+4.9 -3.8 53 +5  1023.9  0.2  757  300           
18 12.04.10 060 (СВ) 10 км    ясно 
+2.2 -4.2 63 +3  1024.3  0.3  757  303    +6.4       
21 12.04.10 040 (СВ) 10 км    ясно 
+0.8 -4.9 66 +1  1024.3  -0.1  757  305           
00 13.04.10 тихо ()   10 км    ясно 
-1.6 -4.9 78 -2  1024.2  -0.2  757  307           
03 13.04.10 тихо ()   >10 км    6/0 средняя 
[Ac trans]
-0.9 -3.4 83 -1  1024  -0.2  757  306           
06 13.04.10 310 (СЗ) >10 км    10/0 средняя 
[Ac lent]
+3.2 -3.6 61 +4  1023.5  -0.3  756  302  -2.3         
09 13.04.10 300 (СЗ) >10 км    10/0 средняя 
[Ac lent]
+4.8 -4.7 50 +6  1022.9  -0.5  756  300           
12 13.04.10 230 (ЮЗ) >10 км    10/0 средняя 
[Cu med, cong|Ac lent]
+4.9 -4.6 50 +6  1021.7  -1.1  755  299           
15 13.04.10 170 (Ю) >10 км    10/0 
[Sc]
+4.6 -3.9 54 +5  1020.5  -1.2  754  299           
18 13.04.10 150 (ЮВ) 10 км    10/0 средняя 
[Ac cast]
+2.1 -1 80 +3  1019.6  -1  754  301    +5.6       
21 13.04.10 200 (Ю) 10 км  слаб. снег  10/10 300 м 
[Ns]
+0.7 -0.4 92 +1  1019  -0.7  753  303           
00 14.04.10 010 (С) 10 км  {снег}  10/10 300 м 
[Ns]
+0.8 -0.3 92 +1  1018.1  -0.9  752  302           
03 14.04.10 340 (С) >10 км    10/0 средняя 
[Ac cast]
+1 -0.4 90 +2  1017.6  -0.5  752  302           
06 14.04.10 020 (С) >10 км    4/4 600 м 
[Sc]
+2.2 -5.7 56 +1  1017.4  -0.1  752  301  +0.4       
09 14.04.10 010 (С) >10 км    6/6 600 м 
[Sc]
+3 -5 56 +2  1018.9  1.5  753  301           
12 14.04.10 030 (СВ) >10 км    8/8 600 м 
[Sc]
+4.2 -6.5 46 +4  1018.2  -0.6  753  299           
15 14.04.10 тихо ()   >10 км    ясно 
+4.5 -5.6 48 +5  1017.9  -0.3  752  299           
18 14.04.10 180 (Ю) 10 км    ясно 
+1 -5.4 62 +2  1018.7  0.6  753  303    +5.6       
21 14.04.10 тихо ()   10 км    ясно 
-0.7 -4.9 73 -1  1018.7  -0.1  753  305           
00 15.04.10 170 (Ю) 10 км    3/0 средняя 
[Ac und]
-0.8 -4.6 75 1018.3  -0.4  752  305           
03 15.04.10 170 (Ю) >10 км    8/5 600 м средняя 
[Sc|Ac cast]
-0.6 -4.4 75 -1  1017.3  -0.9  752  304           
06 15.04.10 240 (ЮЗ) >10 км    6/0 средняя 
[Ac cast]
+5.5 -1.9 59 +5  1016.6  -0.3  752  297  -0.8         
09 15.04.10 170 (Ю) >10 км    8/0 средняя 
[Ac cast]
+9.5 +0 52 +10  1015.7  -0.7  751  292           
12 15.04.10 230 (ЮЗ) >10 км    8/0 средняя 
[Ac trans]
+11.1 -0.9 43 +10  1015.2  -0.5  751  291           
15 15.04.10 170 (Ю) >10 км    10/5 600 м средняя 
[Sc|Ac As]
+9 +0.2 54 +10  1014.4  -0.9  750  292           
18 15.04.10 140 (ЮВ) 10 км    10/0 средняя 
[Ac cast]
+6.6 -0.1 62 +8  1014.9  0.4  750  295    +12.1       
21 15.04.10 тихо ()   10 км  {дождь}  10/0 средняя 
[Ac As]
+5.5 +0 68 +6  1014.6  -0.3  750  296           
00 16.04.10 140 (ЮВ) 10 км  в посл. час дождь  10/0 средняя 
[Sc|Ac As]
+4 +0.3 77 +5  1014.7  750  298           
03 16.04.10 180 (Ю) >10 км    8/3 600 м средняя, верхняя 
[Sc|Ac cast|Ci fib]
+3 +1.4 89 +4  1015.3  0.5  750  299           
06 16.04.10 210 (ЮЗ) >10 км  {дождь}  10/0 средняя 
[Ac lent]
+7.8 +2.5 69 +9  1016  751  294  +2.7    0.6     
09 16.04.10 170 (Ю) >10 км    8/4 600 м средняя 
[Cu med, cong|Ac cast]
+10.8 +2.1 55 +12  1015.9  751  291           
12 16.04.10 270 (З) >10 км  в посл. час гроза{ливн. осадки}  8/6 600 м кучево-дожд., средняя 
[Cb cap|Ac cast]
+7.2 +5.5 89 +6  1016.4  0.4  751  294           
15 16.04.10 130 (ЮВ) >10 км    ясно 
+8.3 +5.5 83 +9  1015.9  -0.5  751  293           
18 16.04.10 140 (ЮВ) 10 км    ясно 
+5.6 +3.5 86 +6  1016.5  0.5  751  296    +11.9     
21 16.04.10 160 (Ю) 10 км    ясно 
+3.9 +2.4 90 +5  1017  0.4  752  298           
00 17.04.10 140 (ЮВ) 10 км    1/0 средняя 
[Ac lent]
+2.6 +1 89 +3  1017.7  0.5  752  300           
03 17.04.10 140 (ЮВ) 10 км    ясно 
+2.8 +1.2 89 +4  1017.8  0.1  752  300           
06 17.04.10 150 (ЮВ) >10 км    ясно 
+8.4 +2.7 67 +9  1018.2  0.7  753  294  +2.1         
09 17.04.10 190 (Ю) >10 км    1/1 600 м 
[Cu hum]
+14 +4 51 +14  1017.5  -0.4  752  288           
12 17.04.10 180 (Ю) >10 км    1/1 600 м 
[Cu hum]
+15.3 +1.1 38 +16  1016.4  -0.9  752  287           
15 17.04.10 140 (ЮВ) >10 км    10/0 средняя 
[As op]
+13.2 +2.3 48 +14  1014.7  -1.9  750  288           
18 17.04.10 180 (Ю) 10 км  слаб. дождь  10/10 600 м 
[Sc]
+10.8 +2.7 57 +11  1014.3  -0.5  750  290    +15.7       
21 17.04.10 180 (Ю) 10 км  слаб. дождь  10/10 600 м 
[Sc]
+7.1 +5.9 92 +7  1013  -1.5  749  293           
00 18.04.10 200 (Ю) 10 км  {дождь}  10/10 600 м 
[Sc]
+7.1 +5.8 91 +7  1011.8  -0.9  748  293           
03 18.04.10 190 (Ю) >10 км    10/0 средняя 
[Ac lent]
+6 +4.9 93 +7  1011.2  -0.7  748  294           
06 18.04.10 170 (Ю) >10 км    10/3 600 м средняя, верхняя 
[Sc|Ac cast|Ci fib]
+9.6 +6.4 80 +11  1010.4  -0.6  747  290  +6       
09 18.04.10 180 (Ю) >10 км    10/3 600 м средняя 
[Sc|Ac As]
+11.8 +6.2 68 +13  1009.8  -0.5  747  287           
12 18.04.10 180 (Ю) >10 км    8/3 600 м средняя, верхняя 
[Cu med, cong|Ac lent|Ci fib]
+13.4 +7.7 68 +14  1009.3  -0.4  746  285           
15 18.04.10 240 (ЮЗ) >10 км    4/3 600 м средняя, верхняя 
[Sc diur, vesp|Ac lent|Ci fib]
+13.1 +3.8 53 +13  1010  0.6  747  287           
18 18.04.10 тихо ()   10 км    ясно 
+9.3 +4.8 74 +9  1012.3  2.1  748  291    +13.9       
21 18.04.10 250 (З) 10 км    ясно 
+8.3 +3.6 72 +8  1013.2  0.8  749  292           
00 19.04.10 тихо ()   10 км    ясно 
+5.8 +3.4 85 +6  1014.2  0.9  750  295           
03 19.04.10 240 (ЮЗ) >10 км    ясно 
+5.7 +3 83 +7  1015.7  1.5  751  296           
06 19.04.10 270 (З) >10 км    ясно 
+9.4 +1.5 58 +9  1016.6  1.1  752  293  +4.8         
09 19.04.10 230 (ЮЗ) >10 км    1/1 600 м 
[Cu hum]
+13.1 +0.9 43 +13  1016.9  0.3  752  289           
12 19.04.10 270 (З) >10 км    ясно 
+14.5 +0 37 +15  1016.4  -0.3  752  288           
15 19.04.10 270 (З) >10 км    ясно 
+14.9 +0.4 37 +16  1016.2  -0.2  752  287           
18 19.04.10 150 (ЮВ) 10 км    ясно 
+9.5 +1.3 57 +11  1016.6  0.2  752  292    +14.9       
21 19.04.10 140 (ЮВ) 10 км    ясно 
+7.7 +1.1 63 +9  1016.3  0.4  751  294           
00 20.04.10 140 (ЮВ) 10 км    ясно 
+5.9 +1.1 71 +7  1016.5  0.1  751  296           
03 20.04.10 140 (ЮВ) >10 км    10/0 верхняя 
[Ci fib]
+5.6 +1 72 +5  1016  -0.5  751  296           
06 20.04.10 150 (ЮВ) >10 км    10/0 верхняя 
[Ci fib]
+10.9 +3.4 60 +12  1015.2  -0.6  751  290  +5.1         
09 20.04.10 240 (ЮЗ) 3{10}  >10 км    10/0 верхняя 
[Ci fib]
+18 +3.2 37 +19  1013.8  -1  750  283           
12 20.04.10 230 (ЮЗ) 4{11}  >10 км    10/0 средняя, верхняя 
[Ac cast|Ci fib]
+19.5 +2.5 32 +20  1013  -0.7  749  281           
15 20.04.10 240 (ЮЗ) 3{10}  >10 км    6/0 средняя, верхняя 
[Ac cast|Ci fib]
+18.8 +1.9 32 +19  1012.6  -0.5  749  282           
18 20.04.10 тихо () {10}  10 км    6/0 верхняя 
[Ci fib]
+14.3 +1.7 42 +14  1013.7  0.9  750  287    +19.9       
21 20.04.10 010 (С) 10 км    10/0 верхняя 
[Cs]
+11.6 +2.7 54 +13  1014.6  0.8  750  290           
00 21.04.10 тихо ()   10 км    10/0 верхняя 
[Cs]
+8.9 +2.9 66 +9  1015.2  0.4  751  292           
03 21.04.10 130 (ЮВ) >10 км    10/0 верхняя 
[Cs]
+8.2 +3.2 71 +9  1016.1  0.9  751  293           
06 21.04.10 130 (ЮВ) >10 км    10/0 верхняя 
[Cs]
+14.5 +3.8 49 +15  1016.4  0.6  752  287  +7.3         
09 21.04.10 130 (ЮВ) >10 км    10/0 верхняя 
[Cs]
+19.7 +4.1 36 +21  1016.3  0.2  752  282           
12 21.04.10 150 (ЮВ) >10 км    10/0 верхняя 
[Cs]
+21.2 +3.4 31 +21  1015.7  -0.5  751  280           
15 21.04.10 150 (ЮВ) >10 км    10/0 верхняя 
[Cs]
+18.7 +2.5 34 +20  1015.8  -0.1  751  283           
18 21.04.10 140 (ЮВ) 10 км    ясно 
+15.1 +2.3 42 +16  1016  751  287    +22.2       
21 21.04.10 120 (ЮВ) 10 км    ясно 
+12.2 +2.7 52 +13  1015.9  -0.2  751  289           
00 22.04.10 100 (В) 10 км    ясно 
+11.4 +2.9 56 +13  1015.6  -0.3  751  290           
03 22.04.10 100 (В) >10 км    8/0 средняя 
[Ac lent]
+11.5 +3.6 58 +12    -0.9  750  290           
06 22.04.10 190 (Ю) >10 км    4/0 средняя, верхняя 
[Ac lent|Ci fib]
+16.2 +5.1 48 +17  1014.4  -0.1  750  285  +10.3         
09 22.04.10 110 (В) 3{10}  >10 км    8/0 верхняя 
[Ci fib]
+20.5 +6.4 40 +21  1013.6  -0.6  750  280           
12 22.04.10 170 (Ю) 4{11}  >10 км    6/0 верхняя 
[Ci fib]
+22.3 +5.6 34 +22  1012.1  -1.4  749  278           
15 22.04.10 150 (ЮВ) 4{11}  >10 км    3/0 средняя 
[Ac lent]
+21.3 +4.8 34 +21  1010.7  -1.3  748  279           
18 22.04.10 140 (ЮВ) 10 км    3/3 600 м 
[Sc]
+17.9 +4 40 +18  1010.4  -0.5  747  282    +23       
21 22.04.10 140 (ЮВ) 10 км    10/0 верхняя 
[Cs]
+16.9 +5.5 47 +17  1008.1  -2.4  746  282           
00 23.04.10 140 (ЮВ) 10 км    4/0 верхняя 
[Ci fib]
+14.3 +4.1 50 +14  1006.2  -2  744  284           
03 23.04.10 130 (ЮВ) >10 км    10/0 средняя, верхняя 
[Ac lent|Cc]
+12.9 +3.2 52 +13  1005.6  -0.7  744  286           
06 23.04.10 180 (Ю) 4{10}  >10 км    8/0 верхняя 
[Cs]
+16.2 +7.8 57 +16  1006.6  1.2  744  282  +12.9         
09 23.04.10 200 (Ю) 3{10}  >10 км    10/4 600 м верхняя 
[Sc|Ci fib]
+19.2 +9.8 54 +21  1007.3  0.9  745  279           
12 23.04.10 230 (ЮЗ) 4{11}  >10 км    9/6 600 м средняя, верхняя 
[Sc|Ac As|Ci fib]
+15.6 +8.1 61 +16  1009.2  1.7  746  283           
15 23.04.10 240 (ЮЗ) 4{15}  >10 км    8/8 600 м 
[Sc]
+14.7 -0.2 36 +15  1011.5  2.2  748  286           
18 23.04.10 260 (З) 2{10}  10 км    ясно 
+9.5 -2.7 42 +10  1015.7  3.9  751  293    +19.3       
21 23.04.10 230 (ЮЗ) 10 км    ясно 
+6.5 +0.1 64 +6  1018.6  2.6  753  296           
00 24.04.10 240 (ЮЗ) 10 км    ясно 
+5.1 -0.5 67 +5  1020.4  1.7  754  298           
03 24.04.10 240 (ЮЗ) >10 км    ясно 
+4.5 -1.6 64 +3  1021.8  1.4  755  300           
06 24.04.10 230 (ЮЗ) >10 км    ясно 
+7.8 +0.2 59 +7  1023  1.4  756  296  +4.3         
09 24.04.10 270 (З) 4{10}  >10 км    4/0 средняя 
[Ac cast]
+11.3 +0.6 48 +11  1023  0.1  756  293           
12 24.04.10 270 (З) 4{11}  >10 км    6/0 средняя 
[Cu med, cong|Ac cast]
+12.8 -1.4 37 +12  1023.3  0.4  757  291           
15 24.04.10 230 (ЮЗ) >10 км    8/0 средняя 
[Cu med, cong|Ac cast]
+13.2 -1.9 35 +13  1023.7  0.4  757  291           
18 24.04.10 тихо ()   10 км    ясно 
+8.9 -2.7 44 +9  1024.7  0.8  758  296    +13.7       
21 24.04.10 тихо ()   10 км    ясно 
+7.2 -3.3 47 +7  1024.8  -0.1  758  298           
00 25.04.10 тихо ()   10 км    ясно 
+4.5 -1.9 63 +5  1024.1  -0.8  757  300           
03 25.04.10 130 (ЮВ) >10 км    ясно 
+5.8 -1.2 61 +7  1022.9  -1.1  756  298           
06 25.04.10 150 (ЮВ) >10 км    ясно 
+13.3 -0.9 37 +14  1020.5  -2  755  290  +4.1         
09 25.04.10 140 (ЮВ) 4{10}  >10 км    8/5 600 м верхняя 
[Sc|Ci fib]
+16 -3.3 26 +16  1017.7  -2.6  753  287           
12 25.04.10 280 (З) 4{11}  >10 км    6/3 600 м верхняя 
[Sc|Ci fib]
+12 +3.8 57 +11  1016.6  -1.2  752  290           
15 25.04.10 280 (З) >10 км    9/9 600 м 
[Sc]
+11.2 +2.9 57 +10  1016.6  752  291           
18 25.04.10 320 (СЗ) 10 км    3/0 средняя 
[Ac cast]
+7.2 -2.2 51 +6  1020.2  3.2  754  296    +16.9       
21 25.04.10 280 (З) 10 км    4/0 средняя 
[Ac lent]
+5.2 -1.6 61 +5  1018  -2.3  752  298           
00 26.04.10 тихо ()   10 км    6/0 средняя 
[Ac lent]
+3.5 -2.5 65 +4  1017.7  -0.3  752  300           
03 26.04.10 300 (СЗ) >10 км    10/0 средняя, верхняя 
[Ac lent|Ci fib]
+1.9 -2.5 73 +1  1016.8  -0.9  752  301           
06 26.04.10 270 (З) >10 км    4/4 600 м кучево-дожд. 
[Cb calv]
+4.8 -1.5 64 +4  1016  -0.7  751  298  +1.9         
09 26.04.10 300 (СЗ) >10 км    10/10 1000 м 
[Sc]
+4.5 -1.2 66 +4  1016  751  298           
12 26.04.10 280 (З) >10 км  в посл. час крупа{дождь} [макс. диам. градин 4 мм]  9/8 600 м кучево-дожд., средняя 
[Cb cap|Ac cast]
+4.6 +1 77 +4  1015.7  -0.3  751  297           
15 26.04.10 350 (С) >10 км    9/8 1000 м средняя 
[Sc diur, vesp|Ac cast]
+5.3 -4.3 50 +4  1016.3  0.6  751  297           
18 26.04.10 340 (С) 10 км    8/3 600 м средняя 
[Sc|Ac cast]
+3.1 -4.5 57 +2  1017.7  1.2  752  300    +6.1     
21 26.04.10 340 (С) 10 км    8/3 600 м средняя 
[Sc|Ac cast]
+1.7 -2.7 73 +1  1017.5  -0.2  752  301           
00 27.04.10 340 (С) 10 км    9/5 600 м средняя 
[Sc|Ac cast]
+0.8 -2.8 77 1017.2  -0.1  752  302           
03 27.04.10 320 (СЗ) >10 км    9/9 600 м 
[Sc]
+0.9 -3 75 1017.8  0.3  752  302           
06 27.04.10 320 (СЗ) 10 км  {снег}  9/9 600 м 
[Sc]
+2.6 -4.4 60 +1  1017.5  -0.2  752  301  +0.7         
09 27.04.10 320 (СЗ) >10 км  {ливн. осадки}  9/5 600 м кучево-дожд., средняя 
[Cb calv|Ac trans]
+3.2 -3.2 63 +2  1017.9  0.4  752  300           
12 27.04.10 340 (С) 2{11}  >10 км  в посл. час ливневой снег  9/5 600 м кучево-дожд., средняя 
[Cb cap|Ac trans]
+2.6 -2.6 69 +2  1018.4  0.5  753  301           
15 27.04.10 300 (СЗ) >10 км    9/5 600 м средняя 
[Sc|Ac trans]
+3.8 -8.1 41 +3  1018.6  0.3  753  300           
18 27.04.10 270 (З) 10 км    1/1 600 м 
[Sc diur, vesp]
+3 -6.2 51 +2  1018.6  -0.1  753  301    +4.8  0.3     
21 27.04.10 260 (З) 10 км    8/0 верхняя 
[Ci fib]
+2.2 -7.4 49 +2  1018.2  -0.4  752  302           
00 28.04.10 290 (З) 10 км    8/0 средняя, верхняя 
[Ac lent|Ci fib]
+1 -8.9 47 1017.2  -1  752  303           
03 28.04.10 280 (З) >10 км    3/0 средняя 
[Ac trans]
-0.3 -10.5 46 -1  1017.3  752  304           
06 28.04.10 310 (СЗ) >10 км    6/0 верхняя 
[Ci fib]
+5.5 -8.4 36 +5  1016.7  -0.3  752  298  -0.3         
09 28.04.10 280 (З) >10 км    10/0 верхняя 
[Ci fib]
+9.4 -10.7 23 +9  1015.8  -0.7  751  293           
12 28.04.10 280 (З) >10 км    6/0 верхняя 
[Ci fib]
+11.7 -11.7 18 +11  1014.6  -1.1  750  291           
15 28.04.10 290 (З) >10 км    ясно 
+11.9 -9.8 21 +12  1013.6  -0.9  749  290           
18 28.04.10 тихо ()   10 км    ясно 
+7.9 -7.4 33 +8  1013.4  -0.4  749  294    +12.7       
21 28.04.10 тихо ()   10 км    ясно 
+5.9 -6.3 41 +6  1012.5  -1  748  296           
00 29.04.10 тихо ()   10 км    10/0 средняя 
[Ac As]
+5.3 -4.7 48 +5  1011.6  -0.9  748  296           
03 29.04.10 140 (ЮВ) 10 км    10/0 средняя 
[Ac As]
+6.9 -5 42 +8  1011  -0.5  747  294           
06 29.04.10 150 (ЮВ) >10 км    10/0 средняя 
[Ac As]
+11.2 -1.9 40 +12  1010.4  -0.4  747  289  +3.8         
09 29.04.10 270 (З) >10 км    10/4 600 м средняя 
[Sc|Ac cast]
+14.9 -1.2 33 +15  1009.3  -0.9  746  285           
12 29.04.10 240 (ЮЗ) >10 км    9/9 600 м 
[Sc]
+14.3 +2.3 44 +16  1009.1  -0.2  746  285           
15 29.04.10 250 (З) >10 км    9/8 600 м средняя 
[Sc|Ac cast]
+12.4 +5.6 63 +14  1009.2  746  287           
18 29.04.10 290 (З) 10 км    8/0 средняя 
[Ac lent]
+9.8 +6.1 78 +10  1010.5  1.2  747  290    +15.5       
21 29.04.10 290 (З) 10 км  {дождь}  10/10 600 м 
[Sc]
+8.6 +6.7 88 +10  1011.5  0.9  748  291           
00 30.04.10 320 (СЗ) 10 км  {дождь}  10/6 600 м средняя 
[Sc|Ac cast]
+7.9 +5.5 85 +9  1012.7  1.1  749  292           
03 30.04.10 300 (СЗ) >10 км    8/0 средняя 
[Ac lent]
+7 +4 81 +8  1014.8  750  294           
06 30.04.10 300 (СЗ) >10 км    4/0 средняя 
[Ac lent]
+9.7 +3.2 64 +11  1015.7  1.1  751  292  +6.9    0.0     
09 30.04.10 230 (ЮЗ) >10 км    4/0 средняя 
[Ac lent]
+12.8 -1.4 37 +14  1016  0.4  751  289           
12 30.04.10 310 (СЗ) >10 км    10/0 верхняя 
[Ci fib]
+14.2 -2.7 31 +15  1015.5  -0.4  751  288           
15 30.04.10 210 (ЮЗ) >10 км    6/0 средняя 
[Ac cast]
+13.8 -1.9 34 +14  1014.8  -0.7  750  288           
18 30.04.10 130 (ЮВ) 10 км    6/0 средняя 
[Ac cast]
+10.9 -0.5 45 +12  1015.7  0.7  751  291    +15       
21 30.04.10 130 (ЮВ) 10 км    6/0 средняя 
[Ac cast]
+9.5 -0.7 49 +11  1015.7  751  292           
00 01.05.10 130 (ЮВ) 10 км    3/0 верхняя 
[Ci fib]
+8.3 +0.9 60 +9  1016.4  0.6  751  294           
03 01.05.10 тихо ()   >10 км    10/3 600 м средняя 
[Sc|Ac As]
+8.5 +2.3 65 +9  1017.3  0.8  752  294           
06 01.05.10 240 (ЮЗ) >10 км    9/0 средняя 
[Ac trans]
+13.7 +1.7 44 +14  1017.2  0.2  752  288  +7.6         
09 01.05.10 240 (ЮЗ) >10 км    9/1 600 м средняя 
[Cu hum|Ac trans]
+16.5 +0.6 34 +17  1016.9  -0.2  752  286           
12 01.05.10 200 (Ю) >10 км    9/9 600 м 
[Sc]
+18.1 +2.3 35 +19  1016  -0.7  752  284           
15 01.05.10 140 (ЮВ) 1{11}  >10 км  {ливн. осадки}  6/0 средняя 
[Ac cast]
+17.5 +4.8 43 +19  1015.4  -0.6  751  284           
18 01.05.10 160 (Ю) 10 км    9/6 600 м средняя 
[Sc|Ac cast]
+14.9 +5.5 53 +16  1016.1  0.5  751  286    +18.5  0.0     
21 01.05.10 160 (Ю) 10 км    9/0 средняя 
[Ac cast]
+13.1 +4.3 55 +14  1016.3  0.2  752  288           
00 02.05.10 130 (ЮВ) 10 км    8/0 средняя 
[Ac cast]
+11.3 +4.6 63 +12  1016.6  0.2  752  290           
03 02.05.10 130 (ЮВ) >10 км  слаб. дождь  10/10 600 м 
[Sc]
+11.5 +5.5 67 +13  1016.6  752  290           
Время (UTC), дата Ветер
(°,м/с) 
Видим.   Явления Облачность Т
(°С)
Тd
(°С)
f(%) Тe
(°С)
Pmin
(гПа)
dP
(гПа)
Po
(мм)
O2
(г/м3)
Тmin Tmax R s Состояние
почвы